Wind_Speed
13 15 19 16 12 9 7 3 8 10 11 10 14 18 23 24 31 33 32 32 30 33 38 34 34 32 32 34 33 32 33 34 35 37 39 41 40 39 39 40 38 37 33
13 13 11 12 10 9 6 8 10 14 15 16 17 24 29 29 32 35 33 34 34 33 25 28 32 31 32 32 33 36 37 38 38 39 42 42 42 43 44 45 42 40 43
10 9 8 8 8 9 10 12 10 16 18 21 24 28 33 35 35 38 35 34 33 35 28 29 32 36 35 35 36 37 37 37 36 39 40 42 42 44 46 44 44 51 55
10 7 8 9 11 12 10 10 13 15 20 25 30 35 36 40 38 41 40 42 36 35 38 34 38 40 44 43 43 41 41 36 35 37 35 37 41 45 44 44 47 52 52
14 10 11 13 12 9 10 9 13 18 21 27 29 33 38 41 42 43 44 43 46 44 41 39 37 36 40 44 43 43 39 33 35 38 39 40 40 40 43 47 51 56 56
19 16 16 15 14 14 15 16 15 18 22 27 33 39 38 42 44 45 46 48 47 42 43 39 38 36 37 37 41 42 34 37 33 36 41 44 47 49 49 54 53 57 56
24 17 19 10 12 13 17 21 23 25 25 30 35 42 46 39 42 49 50 48 44 40 39 37 32 36 34 35 42 46 45 39 36 40 33 47 49 51 53 53 56 58 57
25 23 20 17 17 16 17 20 24 26 30 36 40 47 54 56 52 49 48 47 40 40 33 36 26 26 29 36 40 46 35 32 38 38 42 48 52 56 55 56 60 60 49
30 27 21 20 19 16 18 23 28 29 34 37 42 49 52 54 60 59 48 45 45 39 36 39 35 34 35 39 41 40 41 47 44 43 45 50 54 54 58 59 59 49 46
34 26 24 26 26 25 24 28 29 33 37 41 47 52 54 59 58 57 49 44 42 42 45 45 41 40 38 38 43 46 47 41 40 43 50 52 54 56 57 50 45 41 40
31 26 25 27 28 30 30 32 33 38 42 45 48 51 55 60 57 53 44 41 39 39 41 43 42 43 42 39 42 41 41 42 44 47 51 53 50 47 45 43 40 38 36
31 25 27 29 31 32 35 34 39 43 46 49 49 52 57 56 56 50 46 45 44 44 44 41 44 44 39 39 36 40 42 47 51 54 48 46 43 41 41 39 37 35 34
28 29 30 35 37 38 46 33 41 44 46 50 52 53 54 56 54 50 47 46 43 41 40 42 40 37 41 43 41 44 46 48 53 49 48 44 42 42 39 37 35 34 33
32 30 36 39 41 41 40 40 42 46 52 54 54 56 59 51 50 49 48 46 42 42 41 41 39 37 41 41 44 50 52 51 48 43 42 41 38 38 37 36 34 34 33
34 37 44 44 43 47 43 45 47 50 53 53 57 59 57 54 51 50 48 46 46 43 40 34 36 43 49 46 49 50 48 43 41 37 38 37 35 34 33 34 33 33 33
44 46 47 42 43 42 45 47 51 53 55 56 57 56 54 51 48 47 46 45 41 40 36 36 41 45 46 48 45 37 40 40 39 38 37 35 33 33 33 33 32 31 31
52 50 47 55 43 46 48 52 55 56 56 51 52 50 47 49 47 46 43 39 37 37 37 38 42 44 38 33 36 38 40 41 40 38 36 35 34 34 32 30 28 27 28
52 49 54 46 43 49 52 55 56 56 50 46 47 47 46 44 46 41 38 36 38 38 39 39 34 30 32 35 35 35 35 35 34 33 34 32 29 27 26 24 24 24 26
55 56 56 51 40 48 56 57 56 50 46 47 47 44 45 43 39 39 36 36 36 36 32 26 26 28 29 28 28 30 30 31 31 32 30 27 25 24 24 24 25 27 29
53 56 57 49 51 54 60 58 52 49 45 46 42 43 38 38 40 38 34 33 32 26 25 27 26 24 25 26 27 28 27 26 27 28 28 27 27 26 26 26 27 28 30
51 34 39 44 49 53 50 46 46 47 45 43 39 37 36 39 39 32 31 28 25 27 24 22 24 22 23 24 25 25 24 24 24 25 25 25 24 24 25 27 29 29 30
46 44 45 49 53 45 43 44 46 45 42 41 38 37 37 32 32 28 23 23 24 22 21 21 22 22 22 23 23 24 26 26 24 25 25 25 24 25 26 28 28 27 27
43 44 46 46 39 46 44 42 44 42 37 35 33 33 32 30 29 22 22 24 22 20 20 19 20 21 21 23 24 27 27 26 25 24 24 23 23 24 25 25 24 23 24
43 42 46 43 38 37 39 37 33 35 34 34 32 30 28 27 26 23 23 22 21 20 19 19 19 20 20 21 22 25 25 24 25 24 23 23 23 23 24 21 22 24 22
37 39 41 39 37 36 34 35 29 36 35 33 31 31 28 27 26 25 24 20 21 21 21 22 23 22 22 22 21 22 23 24 25 25 25 24 24 24 23 20 20 22 22
35 39 39 39 40 37 30 29 36 35 37 32 34 32 28 26 27 25 22 21 22 22 21 23 23 24 23 24 23 22 23 24 24 24 24 25 24 22 21 19 19 20 21
Wind_Direction
273 254 241 240 235 238 272 304 325 332 333 344 333 341 340 340 349 342 339 341 344 303 292 265 275 280 281 284 290 287 284 280 277 276 279 281 281 281 283 286 289 291 291
268 262 236 229 233 246 230 312 298 324 343 340 335 336 341 338 339 342 341 337 334 347 325 283 277 280 279 284 287 289 287 281 279 277 274 277 282 281 283 287 289 285 291
271 254 252 251 262 277 298 302 298 325 329 339 342 340 340 335 335 339 332 328 325 329 317 320 290 278 279 283 283 287 292 289 280 277 272 271 273 279 280 282 283 286 290
262 269 283 284 286 282 281 284 291 317 336 339 341 336 332 332 337 332 329 326 320 318 315 303 304 296 273 279 281 295 298 296 281 285 279 268 271 273 278 276 284 286 288
252 256 276 284 291 262 275 290 320 331 333 332 334 335 332 331 330 327 322 321 321 317 314 304 304 302 280 278 288 293 296 288 277 279 281 284 286 283 280 288 293 295 298
265 251 262 280 288 272 273 295 318 325 329 329 326 320 327 328 327 327 322 325 322 315 315 315 305 300 295 278 288 288 286 279 279 287 290 291 290 290 288 290 294 297 295
263 262 260 258 269 283 285 286 299 315 316 320 317 315 316 314 322 322 320 323 319 311 308 318 317 295 302 286 289 282 288 274 290 311 304 286 289 288 290 292 295 298 304
266 275 255 246 260 272 284 291 295 306 313 316 321 319 317 322 319 325 321 322 318 315 311 314 317 300 291 298 290 284 280 297 301 293 284 282 285 289 290 294 296 299 304
262 274 262 244 255 272 286 296 300 305 311 313 318 315 315 317 314 321 318 317 315 309 308 309 307 301 300 293 297 284 286 295 290 287 285 286 289 292 294 291 295 298 301
262 270 262 255 261 276 286 295 300 305 306 309 312 311 311 311 317 315 312 309 306 308 305 305 304 304 302 293 293 294 290 283 288 288 289 290 291 293 295 298 305 304 299
256 261 267 269 268 277 284 294 302 303 304 304 304 305 306 310 311 312 308 305 307 306 304 302 299 300 299 293 291 288 286 285 288 289 291 294 295 298 302 305 305 299 296
257 264 268 272 276 276 280 289 293 295 295 296 298 300 302 305 309 309 308 309 307 304 302 301 299 300 294 293 289 284 283 290 292 295 297 298 302 302 304 304 299 299 299
251 259 266 271 275 277 270 284 291 293 293 295 295 299 303 303 305 309 310 309 306 303 301 301 296 290 292 291 283 285 291 293 297 297 298 299 300 301 303 302 298 298 299
250 261 265 268 269 269 280 290 289 290 296 295 298 300 302 299 306 308 306 305 305 305 301 300 290 292 297 295 296 295 295 298 299 299 301 303 302 302 301 297 294 296 296
253 258 258 261 261 267 275 284 287 292 297 296 296 299 302 298 304 304 303 303 304 303 304 301 289 294 297 296 297 298 297 297 302 304 299 298 299 299 297 295 297 298 298
251 253 256 262 270 269 278 282 287 290 295 295 298 301 302 303 300 300 300 302 302 303 300 293 290 293 297 299 300 299 300 301 301 299 301 303 304 303 301 299 299 298 298
249 253 253 261 263 269 280 287 286 289 296 296 299 300 303 301 299 299 303 303 305 306 302 300 298 300 302 301 303 305 304 304 304 305 306 306 307 305 302 300 297 294 299
248 247 254 257 262 273 279 283 284 288 294 298 298 300 299 299 301 302 303 306 306 304 301 300 302 305 307 310 310 308 307 306 305 307 307 309 309 306 303 301 298 300 302
249 251 254 255 260 272 278 279 286 290 296 298 298 298 299 302 300 302 306 304 301 300 301 302 302 307 308 310 314 318 316 313 308 307 308 309 310 310 308 306 304 303 302
263 258 265 262 265 270 279 283 287 291 293 292 294 296 298 296 298 300 300 297 298 297 302 305 307 311 313 318 319 319 321 317 312 309 307 309 309 307 306 306 304 304 303
264 264 257 261 270 276 282 287 290 289 287 289 295 295 295 296 299 301 297 292 291 298 301 304 309 313 312 313 316 320 325 322 318 315 312 309 307 305 305 305 306 307 307
258 262 266 270 273 278 284 285 283 282 287 293 295 292 293 293 298 295 281 283 292 296 302 307 309 309 307 313 316 322 327 326 322 318 313 308 305 305 307 309 312 313 312
257 267 266 269 279 281 281 281 282 285 289 290 293 291 290 293 294 286 284 289 293 296 302 303 308 313 314 314 315 319 321 324 323 321 318 317 314 311 312 316 320 322 321
265 271 274 279 280 279 283 278 281 284 290 287 287 284 285 287 283 281 286 288 286 292 293 296 304 311 313 315 318 322 326 322 324 325 320 319 320 318 317 321 324 327 327
267 270 275 280 274 275 265 273 267 273 282 283 283 281 282 277 278 280 282 276 282 287 286 292 300 304 307 311 316 319 325 325 323 323 323 321 318 316 316 318 325 330 333
269 272 272 271 271 272 272 263 275 276 277 279 278 280 274 274 279 277 270 272 277 283 287 295 300 299 299 304 312 314 319 322 322 323 324 323 321 316 312 312 321 327 332
Height
5884 5885 5887 5891 5893 5895 5897 5898 5897 5897 5897 5897 5895 5895 5893 5890 5886 5882 5878 5875 5870 5863 5856 5859 5861 5859 5858 5857 5856 5855 5853 5850 5848 5846 5844 5841 5840 5837 5835 5833 5833 5835 5835
5883 5884 5886 5889 5891 5893 5894 5895 5894 5894 5893 5892 5892 5890 5887 5884 5882 5877 5873 5869 5863 5857 5853 5854 5854 5852 5850 5849 5848 5845 5843 5842 5840 5838 5834 5832 5830 5828 5826 5826 5825 5822 5820
5881 5882 5885 5887 5888 5889 5891 5891 5890 5889 5888 5887 5885 5882 5880 5877 5875 5871 5868 5864 5860 5855 5851 5850 5847 5844 5842 5840 5838 5836 5834 5831 5829 5827 5826 5823 5822 5818 5816 5814 5813 5811 5808
5879 5880 5882 5884 5885 5886 5887 5887 5887 5885 5881 5880 5878 5877 5875 5872 5869 5866 5863 5859 5855 5850 5847 5843 5839 5834 5833 5831 5828 5828 5824 5821 5818 5816 5816 5815 5813 5810 5808 5806 5804 5801 5797
5875 5877 5879 5880 5882 5882 5882 5882 5881 5879 5877 5875 5875 5873 5871 5867 5864 5860 5856 5851 5848 5842 5837 5833 5830 5827 5824 5823 5822 5819 5815 5813 5810 5806 5804 5801 5798 5796 5793 5791 5788 5783 5780
5869 5873 5874 5875 5876 5877 5876 5876 5875 5874 5873 5873 5870 5866 5864 5860 5857 5853 5848 5844 5839 5835 5830 5825 5820 5817 5813 5814 5813 5809 5805 5800 5798 5798 5795 5791 5788 5784 5782 5777 5772 5770 5767
5863 5867 5868 5870 5871 5870 5870 5869 5869 5868 5867 5866 5864 5859 5855 5850 5849 5845 5839 5836 5830 5826 5823 5819 5813 5810 5808 5807 5805 5799 5796 5793 5791 5788 5785 5781 5778 5773 5769 5764 5760 5754 5750
5857 5859 5862 5864 5865 5865 5864 5863 5863 5862 5861 5859 5856 5852 5847 5843 5839 5834 5830 5826 5823 5818 5815 5811 5806 5804 5800 5797 5794 5790 5786 5782 5779 5777 5773 5769 5765 5760 5755 5751 5747 5742 5737
5850 5852 5854 5855 5857 5858 5857 5857 5856 5855 5853 5851 5849 5845 5840 5836 5830 5825 5820 5818 5813 5810 5807 5802 5800 5796 5793 5788 5784 5780 5778 5773 5768 5763 5760 5757 5752 5747 5742 5738 5734 5729 5724
5842 5845 5846 5848 5849 5850 5850 5850 5849 5847 5845 5843 5840 5837 5832 5827 5821 5817 5811 5808 5805 5800 5799 5795 5790 5785 5780 5776 5773 5769 5764 5759 5755 5752 5748 5744 5738 5734 5729 5723 5718 5713 5710
5833 5836 5838 5839 5841 5841 5842 5842 5841 5840 5837 5835 5832 5828 5823 5817 5812 5807 5802 5800 5795 5792 5789 5785 5779 5773 5769 5764 5760 5755 5752 5749 5745 5741 5737 5731 5726 5720 5715 5710 5706 5702 5700
5824 5827 5829 5831 5832 5833 5833 5831 5832 5831 5829 5825 5821 5816 5812 5807 5802 5798 5793 5789 5785 5781 5776 5773 5767 5761 5756 5753 5749 5745 5740 5737 5733 5728 5723 5718 5713 5708 5704 5698 5694 5691 5687
5816 5819 5821 5822 5823 5824 5821 5822 5821 5819 5817 5814 5809 5805 5800 5795 5791 5787 5782 5778 5774 5768 5765 5761 5757 5753 5747 5743 5739 5735 5731 5726 5720 5715 5710 5705 5701 5697 5693 5689 5686 5682 5679
5807 5810 5813 5814 5814 5813 5811 5812 5811 5809 5806 5801 5797 5793 5789 5785 5781 5776 5771 5766 5762 5758 5754 5749 5744 5740 5737 5733 5729 5724 5719 5713 5707 5702 5697 5693 5690 5686 5683 5680 5677 5674 5670
5800 5802 5803 5803 5803 5802 5802 5802 5800 5797 5793 5789 5785 5781 5778 5775 5771 5765 5760 5755 5750 5745 5741 5739 5733 5728 5725 5721 5717 5712 5706 5701 5697 5693 5688 5684 5681 5678 5674 5671 5668 5665 5661
5788 5790 5792 5793 5791 5791 5791 5789 5787 5784 5780 5776 5773 5770 5765 5763 5759 5755 5749 5743 5738 5733 5729 5728 5725 5718 5715 5711 5706 5700 5696 5692 5688 5684 5679 5674 5671 5668 5665 5662 5658 5655 5652
5776 5779 5779 5778 5778 5780 5779 5778 5775 5771 5768 5765 5762 5758 5755 5752 5747 5742 5736 5732 5728 5722 5718 5716 5713 5708 5704 5699 5696 5691 5686 5682 5677 5672 5668 5665 5663 5660 5657 5653 5650 5647 5644
5761 5761 5763 5765 5766 5768 5767 5765 5762 5761 5757 5754 5749 5746 5743 5740 5735 5729 5726 5722 5718 5713 5710 5707 5702 5698 5695 5691 5688 5683 5678 5674 5670 5666 5662 5659 5655 5652 5649 5646 5643 5641 5638
5749 5749 5749 5751 5752 5753 5753 5753 5751 5751 5747 5740 5738 5734 5732 5730 5724 5719 5717 5712 5709 5705 5702 5699 5696 5693 5689 5685 5681 5677 5672 5667 5663 5659 5656 5653 5650 5647 5644 5641 5637 5634 5631
5739 5738 5738 5737 5740 5739 5739 5737 5737 5735 5734 5730 5724 5722 5722 5717 5713 5709 5707 5702 5700 5697 5694 5691 5688 5686 5682 5679 5675 5671 5666 5662 5658 5654 5650 5647 5644 5641 5637 5634 5631 5627 5624
5727 5725 5727 5728 5729 5728 5728 5726 5723 5721 5722 5719 5715 5713 5709 5705 5702 5699 5696 5694 5692 5690 5687 5684 5682 5679 5676 5673 5670 5665 5661 5656 5652 5648 5645 5642 5638 5635 5632 5628 5624 5620 5617
5714 5714 5714 5715 5715 5715 5715 5712 5709 5708 5708 5706 5705 5703 5698 5695 5692 5691 5689 5687 5685 5682 5680 5679 5676 5673 5671 5667 5664 5660 5655 5651 5647 5643 5640 5636 5633 5629 5625 5621 5617 5614 5610
5697 5701 5702 5703 5704 5701 5700 5698 5697 5694 5694 5694 5692 5691 5688 5684 5683 5682 5681 5679 5678 5676 5675 5673 5671 5668 5665 5662 5659 5655 5650 5647 5642 5638 5635 5631 5627 5624 5620 5616 5612 5609 5606
5687 5690 5691 5690 5690 5689 5689 5687 5686 5683 5683 5683 5682 5681 5678 5675 5675 5675 5674 5672 5671 5670 5669 5668 5666 5662 5660 5657 5654 5649 5645 5642 5638 5634 5630 5626 5623 5619 5615 5612 5609 5606 5602
5678 5679 5678 5680 5679 5677 5677 5676 5677 5675 5673 5672 5671 5671 5668 5668 5667 5667 5666 5665 5664 5664 5663 5661 5659 5657 5654 5651 5648 5644 5641 5637 5633 5630 5626 5622 5618 5615 5612 5609 5606 5603 5599
5668 5668 5669 5669 5668 5667 5666 5667 5665 5664 5664 5662 5662 5662 5659 5659 5659 5658 5658 5658 5657 5656 5655 5654 5652 5650 5648 5645 5642 5639 5635 5632 5629 5625 5622 5618 5615 5611 5608 5606 5603 5601 5597